Probability
0 0 0 0 0 0 0 0 0 0 0 0 0 0 0 0 0 0 0 0 0 0 0 1 1 1 1 1 0 0 0 0 0 0 0 0 0 0 0 0 0 0 0 0 0 0 0 0 0
0 0 0 0 0 0 0 0 0 0 0 0 0 0 0 0 0 0 0 0 0 0 0 0 1 1 2 2 1 1 0 0 0 0 0 0 0 0 0 0 0 0 0 0 0 0 0 0 0
0 0 0 0 0 0 0 0 1 2 1 0 0 0 0 0 0 1 1 1 0 0 0 0 1 3 4 4 3 2 1 1 0 0 0 0 0 0 0 0 0 0 0 0 0 0 0 0 0
0 0 0 0 0 0 0 1 3 6 5 1 0 0 0 1 2 3 2 1 0 0 0 0 1 3 5 5 4 4 3 2 1 0 0 0 0 0 0 0 0 0 0 0 0 0 0 0 0
0 0 0 0 0 0 1 3 8 12 11 5 1 1 1 2 5 4 1 0 0 0 0 0 1 2 4 5 5 5 5 3 2 1 0 0 0 0 0 0 0 0 1 2 1 0 0 0 0
0 0 0 0 0 0 1 5 12 20 22 14 6 4 4 5 6 4 2 1 0 0 0 0 0 1 3 5 6 6 5 4 2 1 1 0 0 0 0 1 1 1 2 4 3 2 1 1 1
0 0 0 0 0 0 1 6 17 28 33 26 13 5 5 7 7 6 5 3 2 1 0 0 0 1 2 4 5 6 4 3 1 1 1 1 1 0 1 2 2 2 4 7 6 5 5 6 5
0 0 0 0 0 0 1 9 21 32 37 33 20 10 9 10 12 14 14 10 6 3 2 1 1 1 1 2 4 5 4 2 0 0 2 2 2 0 1 3 5 6 8 12 14 13 14 14 13
0 0 0 0 0 1 5 13 23 34 42 41 31 22 20 20 23 29 30 23 13 7 4 2 1 1 1 2 3 4 3 2 1 1 3 3 2 1 2 4 9 12 15 20 25 28 28 26 24
0 0 0 0 1 5 12 18 26 38 50 52 44 37 37 36 37 43 46 38 25 14 7 6 5 4 4 6 7 6 5 4 4 4 4 6 6 5 4 5 10 17 23 29 36 42 45 43 41
0 0 0 0 3 8 17 27 36 47 57 59 56 54 55 55 53 57 59 53 42 30 23 21 20 18 16 17 17 14 12 11 9 8 8 10 12 10 8 8 13 23 33 40 45 51 57 59 58
0 0 0 1 5 12 24 39 54 60 62 66 69 71 73 72 71 71 71 66 59 53 48 46 44 40 35 34 33 29 24 21 18 16 15 17 19 18 17 18 22 32 41 47 52 55 59 61 62
0 0 0 3 10 20 35 53 66 68 67 70 76 80 83 83 81 80 78 75 72 69 66 64 61 56 50 48 48 45 41 37 34 30 27 28 30 31 31 31 31 33 36 41 46 46 45 46 47
0 0 1 4 13 25 42 58 64 62 63 65 69 73 76 78 79 79 78 76 74 70 67 64 60 54 49 48 50 51 49 45 44 41 36 35 38 39 37 34 29 24 23 25 26 25 25 26 26
0 0 1 3 8 19 37 50 49 47 50 53 54 56 59 61 63 66 66 64 60 56 53 51 47 41 38 36 38 40 39 37 36 36 33 32 32 31 27 23 19 15 14 13 10 9 9 11 11
0 0 0 1 2 9 24 34 31 29 33 36 36 39 40 40 40 42 42 41 40 36 33 32 31 29 26 23 23 24 25 24 24 24 24 25 23 18 13 11 10 9 8 7 5 3 2 3 2
0 0 0 0 0 3 12 18 17 15 18 19 18 21 23 22 20 20 19 20 20 17 14 14 15 15 14 13 12 13 14 16 17 16 15 15 13 8 4 4 4 4 3 2 2 1 0 0 0
0 0 0 0 1 3 6 10 11 9 9 8 8 9 10 9 8 7 6 6 5 4 3 3 3 4 4 4 4 4 5 7 9 10 8 6 4 3 1 1 1 1 0 0 1 1 0 0 0
0 0 0 0 2 5 7 8 9 7 5 5 4 3 3 3 2 2 1 1 0 0 0 0 0 0 0 0 0 0 0 2 3 4 4 2 1 1 1 0 0 0 0 0 1 1 0 0 0
0 0 0 0 1 4 6 7 7 4 3 3 3 1 0 0 0 0 0 0 0 0 0 0 0 0 0 0 0 0 0 0 0 1 1 1 0 0 0 0 0 0 0 0 1 1 0 0 0
0 0 0 0 0 1 3 4 4 2 1 1 1 1 0 0 0 0 0 0 0 0 0 0 0 0 0 0 0 0 0 0 0 0 0 0 0 0 0 0 0 0 0 0 0 0 0 0 0
0 0 0 0 0 0 1 2 1 1 0 0 0 0 0 0 0 0 0 0 0 0 0 0 0 0 0 0 0 0 0 0 0 0 0 0 0 0 0 0 0 0 0 0 0 0 0 0 0
0 0 0 0 0 0 0 0 0 0 0 0 0 0 0 0 0 0 0 0 0 0 0 0 0 0 0 0 0 0 0 0 0 0 0 0 0 0 0 0 0 0 0 0 0 0 0 0 0
0 0 0 0 0 0 0 0 0 0 0 0 0 0 0 0 0 0 0 0 0 0 0 0 0 0 0 0 0 0 0 0 0 0 0 0 0 0 0 0 0 0 0 0 0 0 0 0 0
0 0 0 0 0 0 0 0 0 0 0 0 0 0 0 0 0 0 0 0 0 0 0 0 0 0 0 0 0 0 0 0 0 0 0 0 0 0 0 0 0 0 0 0 0 0 0 0 0
0 0 0 0 0 0 0 0 0 0 0 0 0 0 0 0 0 0 0 0 0 0 0 0 0 0 0 0 0 0 0 0 0 0 0 0 0 0 0 0 0 0 0 0 0 0 0 0 0
0 0 0 0 0 0 0 0 0 0 0 0 0 0 0 0 0 0 0 0 0 0 0 0 0 0 0 0 0 0 0 0 0 0 0 0 0 0 0 0 0 0 0 0 0 0 0 0 0
0 0 0 0 0 0 0 0 0 0 0 0 0 0 0 0 0 0 0 0 0 0 0 0 0 0 0 0 0 0 0 0 0 0 0 0 0 0 0 0 0 0 0 0 0 0 0 0 0
0 0 0 0 0 0 0 0 0 0 0 0 0 0 0 0 0 0 0 0 0 0 0 0 0 0 0 0 0 0 0 0 0 0 0 0 0 0 0 0 0 0 0 0 0 0 0 0 0
0 0 0 0 0 0 0 0 0 0 0 0 0 0 0 0 0 0 0 0 0 0 0 0 0 0 0 0 0 0 0 0 0 0 0 0 0 0 0 0 0 0 0 0 0 0 0 0 0
Wind_Speed
10 7 3 2 1 1 5 8 4 1 3 5 10 11 9 7 5 5 2 13 17 16 12 14 16 16 17 17 17 16 15 15 15 14 14 14 13 13 13 12 12 12 12 12 11 11 11 11 11
7 6 2 1 0 2 6 5 2 3 7 10 10 9 9 8 9 10 6 12 17 15 10 12 16 16 16 16 16 16 15 15 14 14 13 13 13 12 12 11 11 11 11 11 11 11 10 10 9
8 5 2 1 2 4 6 4 2 4 6 6 6 6 6 6 9 7 9 15 14 11 9 12 17 16 16 16 15 15 15 14 14 14 13 12 12 12 11 11 10 10 10 11 11 10 10 9 9
4 1 1 1 7 9 9 10 2 6 8 8 8 7 5 4 6 11 16 16 14 10 8 11 17 16 16 15 15 14 14 14 13 13 12 12 12 11 11 10 10 10 10 11 11 10 10 9 9
2 2 1 4 7 9 10 8 2 8 7 8 12 8 5 6 18 20 17 16 14 10 7 10 16 16 15 15 14 14 13 13 13 12 12 11 11 11 10 10 10 10 10 11 11 11 10 10 9
1 1 1 4 7 10 8 2 7 13 11 9 10 8 5 9 16 16 15 14 14 13 8 9 15 15 15 14 14 13 12 12 12 12 11 11 11 10 10 10 10 10 10 10 11 11 11 10 10
2 1 3 5 7 7 6 5 8 10 9 6 6 7 5 7 12 14 14 13 12 12 9 7 8 10 13 14 13 12 12 11 10 10 10 10 10 10 10 10 10 11 11 11 11 12 12 11 11
4 1 3 4 5 6 6 8 8 10 8 6 6 7 5 7 10 13 13 12 11 9 8 7 6 6 6 7 12 12 12 11 11 10 10 10 10 10 11 10 10 12 12 13 13 13 13 13 13
1 2 4 4 4 6 5 7 8 9 11 8 7 5 6 10 13 14 12 10 9 8 6 6 6 6 5 5 9 10 11 11 10 9 11 9 5 5 6 10 12 14 14 15 15 15 15 14 14
4 3 8 7 5 4 5 5 5 8 11 9 9 9 9 10 11 13 12 10 8 8 7 6 6 6 5 6 4 3 4 4 5 4 5 4 4 4 7 9 15 16 17 17 17 17 15 13 6
4 7 9 11 11 4 1 6 6 8 8 6 8 9 9 11 9 10 10 9 7 7 7 6 5 5 5 3 4 2 2 2 3 4 5 4 3 3 5 3 6 9 12 9 10 11 8 7 6
5 10 11 11 10 4 2 5 8 9 8 9 10 10 11 12 10 10 10 9 7 8 7 6 5 4 4 3 3 2 2 2 2 3 4 3 2 3 3 3 3 3 3 5 5 5 7 8 8
7 12 12 11 6 2 7 10 11 10 11 12 14 15 14 12 10 10 9 8 8 8 7 6 5 4 4 3 2 2 1 1 1 1 2 2 2 2 2 2 2 3 3 3 4 5 7 8 9
6 6 7 4 1 3 13 9 9 8 10 13 14 12 11 10 9 9 8 8 7 7 6 5 5 4 4 3 3 2 2 1 2 1 1 1 1 1 1 2 2 2 2 3 4 5 6 7 7
4 6 7 5 3 2 10 11 8 7 10 12 11 11 11 9 9 8 7 7 6 6 6 5 6 5 5 4 3 2 2 2 2 1 1 2 1 1 1 1 2 2 2 3 3 4 4 5 6
5 4 4 6 6 4 10 8 6 5 9 10 9 9 8 7 7 6 6 6 5 6 6 5 6 6 5 4 3 2 2 2 1 1 1 1 1 2 1 1 2 3 2 2 3 3 3 4 5
5 3 3 5 6 5 8 6 4 4 7 7 7 7 7 6 5 5 5 5 5 5 5 5 5 5 5 5 4 3 3 2 1 0 0 0 1 1 1 1 2 2 2 2 3 3 3 4 4
3 2 2 2 4 8 8 5 3 4 5 5 5 5 5 4 4 5 5 5 5 5 5 5 5 5 4 3 3 3 4 3 2 1 1 0 0 1 1 1 2 2 2 2 3 3 3 3 4
2 2 3 2 3 7 8 7 4 4 3 3 3 4 5 4 4 5 5 5 5 4 4 4 3 3 2 2 2 2 2 3 3 2 2 1 1 1 1 1 2 1 1 3 3 3 4 3 2
1 2 2 2 5 7 6 6 4 3 1 3 5 6 6 5 4 5 5 5 5 5 5 5 4 3 2 2 1 1 1 1 1 2 3 3 3 3 3 2 2 2 2 3 3 2 2 3 2
1 4 5 3 4 6 5 2 1 1 2 2 5 7 7 9 8 7 7 7 6 6 6 6 5 4 3 2 1 1 2 2 3 3 3 4 5 5 5 4 4 3 2 2 3 2 2 3 2
3 6 8 8 6 1 2 2 4 3 3 5 6 7 8 8 8 8 8 7 7 7 6 5 5 4 3 3 2 1 1 1 3 2 3 5 5 6 5 5 4 4 3 3 3 2 2 2 3
4 5 6 6 6 3 2 1 4 1 4 6 6 7 9 9 9 9 9 8 7 5 4 4 4 3 3 3 3 2 2 2 3 3 4 5 5 5 5 4 3 3 3 4 3 3 2 2 2
9 8 7 5 5 3 2 1 4 4 5 4 5 6 8 8 8 7 6 4 3 3 3 4 4 3 2 2 2 3 3 4 3 4 4 4 3 4 5 4 3 3 3 4 4 4 4 3 3
6 6 3 4 4 1 2 1 7 6 5 7 7 7 6 5 5 5 4 4 3 4 3 4 4 2 2 2 2 3 4 4 4 4 3 4 3 3 5 5 4 3 3 4 4 4 4 4 4
3 8 7 4 3 1 2 3 7 6 5 5 5 5 3 3 4 4 4 5 4 4 4 3 3 2 2 2 3 3 3 2 3 4 3 4 3 4 5 4 4 5 5 5 4 4 5 4 5
1 1 6 8 4 4 2 4 7 5 3 3 5 4 4 4 5 5 5 5 5 4 3 3 3 2 2 3 3 3 3 3 4 4 4 4 4 5 5 5 5 5 5 5 5 4 5 5 5
3 5 6 5 4 2 3 4 5 6 6 5 5 5 5 5 5 5 5 4 4 3 2 2 2 2 3 3 4 3 4 4 4 4 5 5 5 5 6 6 6 6 6 6 5 5 5 6 6
2 3 5 4 5 6 4 6 7 9 8 8 7 7 7 7 6 5 4 3 3 2 2 1 2 2 3 4 4 4 4 5 5 5 6 6 6 6 6 7 7 7 7 6 5 6 6 6 7
2 3 6 4 0 4 4 5 2 8 8 9 8 7 7 7 5 5 4 3 2 2 2 2 3 3 4 4 4 4 5 5 5 6 7 6 7 7 7 7 7 8 8 7 6 7 7 7 7
Wind_Direction
156 141 130 95 56 272 261 256 245 42 49 59 72 80 77 56 91 128 83 136 135 141 145 145 142 139 138 137 136 135 133 131 130 129 128 129 129 130 131 133 133 134 133 134 133 130 128 128 128
148 148 127 75 184 307 273 254 226 135 132 110 81 78 75 72 86 105 109 132 135 137 136 141 140 138 138 138 139 139 139 138 137 137 138 139 140 141 142 143 143 143 143 143 142 140 138 137 138
162 174 133 162 249 235 272 279 239 124 129 100 83 55 63 88 104 113 131 134 129 129 130 143 140 138 138 138 140 143 145 145 145 146 148 149 150 152 153 154 154 155 154 153 152 150 148 150 152
153 140 324 259 256 248 259 279 266 101 70 63 90 61 43 55 104 124 134 135 129 125 128 143 140 139 139 140 143 147 150 151 151 153 156 158 160 161 163 166 168 168 167 165 164 162 162 164 166
96 129 267 278 264 268 275 272 161 104 97 92 95 88 53 48 111 127 136 136 131 127 129 140 141 141 141 143 146 150 153 156 158 160 164 167 169 171 175 178 179 180 179 177 175 175 175 177 182
115 141 200 267 278 292 297 305 96 94 103 100 91 95 73 106 122 135 136 134 135 136 135 141 145 145 145 147 149 151 155 159 164 167 171 174 178 182 186 188 191 192 190 188 188 188 188 189 193
163 165 240 270 301 312 347 40 71 99 86 72 94 89 101 118 132 137 133 130 132 137 139 139 146 149 151 152 153 156 160 165 170 175 178 183 188 193 199 199 201 201 201 201 200 200 200 201 203
184 97 294 299 309 308 349 31 58 77 79 80 74 108 141 151 134 127 124 123 128 135 143 144 144 145 149 156 162 165 170 175 181 185 189 195 201 205 209 209 212 213 211 210 210 210 209 209 211
175 59 267 266 287 298 337 59 58 60 79 67 61 89 134 129 121 120 119 120 131 140 149 151 153 153 154 162 174 174 179 186 190 195 200 203 209 216 222 224 221 223 223 220 218 216 214 214 216
145 189 238 235 257 291 346 57 93 76 69 65 71 70 95 108 115 125 131 140 142 148 158 165 161 159 164 175 165 175 191 196 199 203 213 208 205 219 230 234 234 233 232 229 226 224 221 218 216
198 220 249 265 266 249 38 52 54 101 68 75 104 104 92 90 94 108 118 127 131 146 153 152 151 153 161 159 148 174 197 199 210 216 219 218 216 229 242 240 249 244 240 235 232 227 222 218 210
239 258 260 268 272 256 158 108 68 69 96 89 87 86 83 82 82 92 104 112 120 125 131 128 124 124 130 130 145 159 181 189 203 220 219 208 214 226 235 237 243 241 234 228 228 224 219 221 218
244 261 269 270 272 233 93 95 95 84 92 88 83 79 78 82 81 86 94 99 102 102 106 117 112 108 107 105 113 106 122 145 188 217 213 198 208 235 243 247 248 246 240 236 235 233 228 225 228
248 275 293 297 336 101 107 97 90 99 99 88 81 78 78 80 83 84 83 86 87 91 93 97 89 85 83 78 76 74 78 87 84 69 61 135 165 231 267 281 279 270 254 244 241 242 241 235 230
311 328 331 356 12 95 100 68 84 115 103 92 87 85 82 77 77 81 86 88 86 85 85 91 90 72 71 60 53 63 71 80 81 81 73 85 92 59 353 322 307 296 290 278 265 253 247 245 238
360 12 345 333 11 24 88 97 105 105 102 99 100 97 89 83 83 86 88 88 89 86 78 68 78 67 61 54 43 36 39 59 69 80 81 73 63 56 32 349 317 309 308 296 280 266 256 251 242
14 4 319 329 15 36 74 105 126 114 108 110 111 107 104 99 96 97 99 99 95 92 88 76 66 63 59 51 43 39 36 34 6 9 25 40 46 61 59 343 314 318 318 304 295 290 264 262 255
286 303 304 315 2 53 75 96 90 89 104 111 114 110 106 114 133 132 125 119 114 109 102 95 80 72 65 50 39 27 21 8 353 332 281 232 330 7 32 312 322 330 320 307 301 289 276 264 263
184 272 277 274 49 68 77 82 46 38 58 96 122 135 140 161 165 148 147 138 131 126 122 121 110 101 88 65 49 30 355 340 344 329 318 291 277 282 263 273 292 306 291 285 289 286 283 276 264
142 192 266 13 63 77 74 70 54 24 265 192 178 176 172 173 176 171 169 168 168 169 166 164 162 151 135 129 135 157 219 290 314 333 332 321 311 296 284 258 258 261 269 295 299 293 288 282 274
195 175 183 158 79 65 98 78 32 266 251 214 203 192 179 186 192 192 189 191 192 192 190 183 181 168 155 139 102 40 24 360 352 341 327 312 305 300 293 276 257 248 230 250 268 274 275 284 281
230 209 173 152 128 131 168 201 235 209 255 233 206 200 197 198 197 199 197 198 201 203 192 183 176 166 162 144 130 142 168 257 263 271 286 303 307 304 297 285 266 253 240 239 254 246 244 269 287
191 158 142 146 128 92 6 130 267 205 248 247 228 213 207 204 200 201 201 199 200 194 176 167 152 155 169 168 172 179 217 238 263 285 304 308 309 312 312 301 285 267 255 250 252 264 257 238 253
128 91 70 58 80 69 279 169 271 222 218 237 237 225 212 204 200 201 200 184 169 146 141 139 144 172 195 195 200 201 229 252 279 298 305 305 307 311 317 310 298 284 274 264 256 254 258 251 252
124 106 54 15 29 293 276 269 260 253 234 225 230 230 216 199 188 184 171 149 138 130 143 153 158 195 225 222 235 240 245 250 258 271 273 285 294 297 301 312 301 290 278 276 269 261 259 255 253
174 135 149 182 184 199 286 260 268 273 268 224 218 206 190 177 162 155 150 140 134 131 133 144 159 202 239 247 261 265 258 243 249 254 254 260 260 265 275 286 288 286 281 279 268 260 257 254 251
82 123 157 129 107 112 241 284 300 290 276 207 194 172 168 159 142 134 131 138 144 143 151 160 171 213 249 256 263 266 261 250 251 260 260 264 264 272 279 282 284 285 283 279 272 259 259 257 251
133 143 83 91 123 132 201 225 229 230 221 206 179 165 159 142 133 136 143 153 160 159 164 173 183 217 246 262 265 268 261 261 262 265 271 270 271 272 280 280 279 278 277 274 272 267 260 256 254
12 59 101 110 142 141 190 251 220 194 188 171 168 165 161 160 159 160 163 165 157 154 170 200 229 247 266 269 268 275 275 272 268 265 265 264 266 267 268 269 272 273 274 271 267 264 265 258 259
180 161 133 125 325 131 143 267 269 159 162 155 164 171 169 162 162 162 163 160 162 194 230 237 249 259 262 261 264 267 270 272 271 268 264 261 262 262 259 260 262 265 268 264 263 265 269 258 256